STARLINK-1887 (47170 NORAD) Tracking and Keplerian Element Data

This shows tracking and keplerian element data for the satellite.

Feedback or suggestion? Click here.




ElementValue
Catalog47170
NameSTARLINK-1887
Epoch Orbit180
Epoch Day99.91667824
Epoch Year2021
RAAN78.6554
Inclination53.0547
Eccentricity0.0001154
Argument of Perigee73.2729
Mean Anonmoly107.5606
Mean Motion15.06390328
Decay Rate0.00020266
L11 47170U 20088BA 21099.91667824 .00020266 00000-0 13759-2 0 9994
L22 47170 53.0547 78.6554 0001154 73.2729 107.5606 15.06390328 1802

Live tracking and technical data element details for STARLINK-1887 (NORAD 47170). STARLINK-1887 can be tracked NOW for your location showing map with azimuth and elevation plus other details from your city location.

Track the satellite on the map from your city or location and see movement details for azimuth, elevation, latitude, longitude, range, height, and movement on the map or in text.







IsCatalogInMostPopularTable: catalog: 47170, numindb: 52
Update: records affected: 1



GetName: 47170 STARLINK-1887

Hit Count: updated at: Sat, 10 Apr 2021 19:55:07 GMT